Weather History for Bolton Field, OH

Change the Weather History Date:

Thursday, August 22, 2013

  Actual Average Record
Temperature  
Mean Temperature 72 °F -  
Max Temperature 84 °F 79 °F 91 °F (2002)
Min Temperature 61 °F 61 °F 53 °F (2004)
Cooling Degree Days 8    
Growing Degree Days 22 (Base 50)    
Moisture  
Dew Point 66 °F    
Average Humidity 92    
Maximum Humidity 100    
Minimum Humidity 62    
Precipitation  
Precipitation 0.00 in - - ()
Sea Level Pressure  
Sea Level Pressure 30.09 in    
Wind  
Wind Speed 4 mph (SW)    
Max Wind Speed 13 mph    
Max Gust Speed -    
Visibility 8 miles    
Events Rain , Thunderstorm    
Averages and records for this station are not official NWS values.
T = Trace of Precipitation, MM = Missing Value Source: NWS Daily Summary

Daily Weather History Graph

Daily Weather History Graph

Search for Another Location

Airport:

Trip Planner

Search our weather history database for the weather conditions in past years. The results will help you decide how hot, cold, wet, or windy it might be!

Date:

Astronomy

Aug. 22, 2013 Rise Set
Actual Time 6:51 AM EDT 8:18 PM EDT
Civil Twilight 6:22 AM EDT 8:47 PM EDT
Nautical Twilight 5:48 AM EDT 9:21 PM EDT
Astronomical Twilight 5:12 AM EDT 9:57 PM EDT
Moon 9:02 PM EDT (8/22) 8:38 AM EDT (8/22)
Length of Visible Light 14h 24m
Length of Day
13h 27m
Waning Gibbous, 97% of the Moon is Illuminated
Aug 22
Waning Gibbous
Aug 28
Last Quarter
Sep 5
New
Sep 12
First Quarter
Sep 19
Full

Hourly Weather History & Observations

Time (EDT) Temp. Heat Index Dew Point Humidity Pressure Visibility Wind Dir Wind Speed Gust Speed Precip Events Conditions
12:15 AM 65.3 °F - 64.4 °F 97% 30.15 in 10.0 mi SSE 4.6 mph - N/A   Clear
12:35 AM 64.8 °F - 63.5 °F 96% 30.15 in 10.0 mi South 5.8 mph - N/A   Clear
12:55 AM 64.4 °F - 63.5 °F 97% 30.14 in 10.0 mi South 5.8 mph - N/A   Clear
1:15 AM 64.0 °F - 63.3 °F 97% 30.13 in 7.0 mi South 4.6 mph - N/A   Clear
1:35 AM 64.4 °F - 63.5 °F 97% 30.13 in 10.0 mi South 4.6 mph - N/A   Clear
1:55 AM 63.5 °F - 63.0 °F 98% 30.13 in 7.0 mi South 4.6 mph - N/A   Clear
2:15 AM 63.5 °F - 63.1 °F 99% 30.13 in 7.0 mi South 3.5 mph - N/A   Clear
2:35 AM 63.7 °F - 63.3 °F 99% 30.12 in 7.0 mi South 3.5 mph - N/A   Scattered Clouds
2:55 AM 63.0 °F - 62.8 °F 99% 30.10 in 7.0 mi SSE 3.5 mph - N/A   Scattered Clouds
3:15 AM 62.8 °F - 62.8 °F 100% 30.11 in 5.0 mi South 3.5 mph - N/A   Clear
3:35 AM 63.0 °F - 63.0 °F 100% 30.10 in 7.0 mi SSW 4.6 mph - N/A   Clear
3:55 AM 62.8 °F - 62.8 °F 100% 30.11 in 7.0 mi SSW 3.5 mph - N/A   Clear
4:15 AM 62.8 °F - 62.8 °F 100% 30.10 in 7.0 mi Calm Calm - N/A   Clear
4:35 AM 62.8 °F - 62.8 °F 100% 30.10 in 7.0 mi Calm Calm - N/A   Clear
4:55 AM 62.6 °F - 62.6 °F 100% 30.10 in 5.0 mi South 3.5 mph - N/A   Clear
5:15 AM 62.4 °F - 62.4 °F 100% 30.09 in 5.0 mi SE 3.5 mph - N/A   Clear
5:35 AM 62.2 °F - 62.2 °F 100% 30.09 in 4.0 mi Calm Calm - N/A   Scattered Clouds
5:55 AM 61.9 °F - 61.9 °F 100% 30.10 in 5.0 mi Calm Calm - N/A   Mostly Cloudy
6:15 AM 61.7 °F - 61.7 °F 100% 30.10 in 5.0 mi Calm Calm - N/A   Scattered Clouds
6:35 AM 61.5 °F - 61.5 °F 100% 30.10 in 3.0 mi Calm Calm - N/A   Clear
6:55 AM 61.7 °F - 61.7 °F 100% 30.10 in 2.0 mi South 4.6 mph - N/A   Clear
7:15 AM 62.2 °F - 62.2 °F 100% 30.11 in 2.5 mi South 3.5 mph - N/A   Clear
7:20 AM 62.6 °F - 62.6 °F 100% 30.10 in 3.0 mi South 3.5 mph - N/A   Clear
7:50 AM 64.4 °F - 64.4 °F 100% 30.09 in 5.0 mi SSW 4.6 mph - N/A   Clear
8:50 AM 69.8 °F - 66.2 °F 88% 30.11 in 7.0 mi WSW 4.6 mph - N/A   Clear
9:50 AM 71.6 °F - 68.0 °F 88% 30.11 in 10.0 mi West 3.5 mph - N/A   Overcast
10:50 AM 78.8 °F - 71.6 °F 78% 30.12 in 10.0 mi West 6.9 mph - N/A   Clear
11:50 AM 80.6 °F 83.9 °F 69.8 °F 70% 30.11 in 10.0 mi West 10.4 mph - N/A   Scattered Clouds
12:50 PM 80.6 °F 83.9 °F 69.8 °F 70% 30.10 in 10.0 mi West 8.1 mph - N/A   Mostly Cloudy
1:50 PM 84.2 °F 88.4 °F 69.8 °F 62% 30.09 in 10.0 mi West 11.5 mph - N/A   Scattered Clouds
2:50 PM 77.0 °F - 68.0 °F 74% 30.08 in 7.0 mi SW 9.2 mph - N/A Rain , Thunderstorm Light Thunderstorms and Rain
3:05 PM 80.6 °F 85.4 °F 73.4 °F 79% 30.07 in 10.0 mi West 12.7 mph - N/A   Mostly Cloudy
7:35 PM 73.9 °F - 67.6 °F 81% 30.05 in 10.0 mi West 5.8 mph - N/A   Scattered Clouds
7:55 PM 73.6 °F - 67.6 °F 82% 30.04 in 10.0 mi WNW 5.8 mph - N/A   Clear
8:15 PM 72.9 °F - 68.0 °F 85% 30.04 in 10.0 mi WNW 6.9 mph - N/A   Clear
8:35 PM 72.7 °F - 68.0 °F 85% 30.04 in 10.0 mi WNW 5.8 mph - N/A   Clear
8:55 PM 72.1 °F - 68.0 °F 87% 30.04 in 10.0 mi West 5.8 mph - N/A   Clear
9:15 PM 71.6 °F - 68.2 °F 89% 30.04 in 10.0 mi WSW 5.8 mph - N/A   Clear
9:35 PM 71.6 °F - 68.4 °F 89% 30.04 in 10.0 mi West 3.5 mph - N/A   Scattered Clouds
9:55 PM 71.1 °F - 68.4 °F 91% 30.04 in 10.0 mi West 3.5 mph - N/A   Mostly Cloudy
10:15 PM 70.9 °F - 68.5 °F 92% 30.05 in 10.0 mi Calm Calm - N/A   Mostly Cloudy
10:35 PM 70.3 °F - 68.5 °F 94% 30.05 in 7.0 mi Calm Calm - N/A   Overcast
10:55 PM 70.7 °F - 68.4 °F 92% 30.05 in 10.0 mi West 3.5 mph - N/A   Overcast
11:15 PM 70.7 °F - 68.4 °F 92% 30.05 in 10.0 mi Calm Calm - N/A   Overcast
11:35 PM 70.2 °F - 68.5 °F 95% 30.06 in 7.0 mi West 3.5 mph - N/A   Overcast
11:55 PM 70.2 °F - 68.4 °F 94% 30.06 in 7.0 mi West 4.6 mph - N/A   Mostly Cloudy